Effective Sunday, March 17, 2024, the National Weather Service National Data Buoy Center will discontinue its Dial-A-Buoy Interactive Voice Response system. For more information, see Service Change Notice 24-06 (PDF).

Station KDAA2 - 9457292 - Kodiak Island, AK Image indicating link to RSS feed of recent meteorological observations for station KDAA2


Conditions at KDAA2 as of
(12:48 pm AKST)
2148 GMT on 02/26/2024:
     

Click on the graph icon in the table below to see a time series plot of the last five days of that observation.

5-day plot - Wind Direction Wind Direction (WDIR):SSW ( 200 deg true )
5-day plot - Wind Speed Wind Speed (WSPD): 1.9 kts
5-day plot - Wind Gust Wind Gust (GST): 4.1 kts
5-day plot - Atmospheric Pressure Atmospheric Pressure (PRES):29.41 in
5-day plot - Wind Speed at 10 Meters Wind Speed at 10 meters (WSPD10M): 1.9 kts
5-day plot - Wind Speed at 20 Meters Wind Speed at 20 meters (WSPD20M): 1.9 kts
5-day plot -  Wind Speed, Wind Gust and Atmospheric Pressure Combined plot of Wind Speed, Gust, and Air Pressure
NOS Water Level Observation Network Water Level
Previous observations
TIME
(AKST)
5-day plot - Wind Direction
WDIR
 
5-day plot - Wind Speed
WSPD
kts
5-day plot - Wind Gust
GST
kts
5-day plot - Wave Height
WVHT
ft
5-day plot - Dominant Wave Period
DPD
sec
5-day plot - Average Wave Period
APD
sec
5-day plot - Mean Wave Direction
MWD
 
5-day plot - Atmospheric Pressure
PRES
in
5-day plot - Pressure Tendency
PTDY
in
5-day plot - Air Temperature
ATMP
°F
5-day plot - Water Temperature
WTMP
°F
5-day plot - Dew Point
DEWP
°F
5-day plot - Salinity
SAL
psu
5-day plot - Visibility
VIS
nmi
5-day plot - Tide (above MLLW)
TIDE
ft
2024-02-26 12:42 pm NE 5.1 7.0----29.41- 35.2 38.3----
2024-02-26 12:36 pmENE 5.1 7.0----29.41- 35.4 38.3----
2024-02-26 12:30 pm NE 5.1 8.0----29.41- 35.1 38.3----
2024-02-26 12:24 pm NE 5.1 7.0----29.42- 34.5 38.3----
2024-02-26 12:18 pm NE 5.1 7.0----29.43-------
2024-02-26 12:12 pm NE 5.1 8.0----29.43- 34.5 38.3----
2024-02-26 12:06 pm NE 6.0 8.9----29.44- 34.5 38.3----
2024-02-26 12:00 pmNNE 2.9 7.0----29.45-0.16 34.3 38.3----
2024-02-26 11:54 amNNE 2.9 8.9----29.45- 34.3 38.3----
2024-02-26 11:48 amNNE 4.1 8.0----29.46-- 38.3----
2024-02-26 11:42 am NE 4.1 7.0----29.47-- 38.3----
2024-02-26 11:36 am NE 2.9 7.0----29.47-- 38.3----
2024-02-26 11:30 amNNE 2.9 8.0----29.48- 33.8 38.3----
2024-02-26 11:24 am NE 5.1 7.0----29.49- 34.0 38.3----
2024-02-26 11:18 am NE 4.1 8.0----29.49- 33.3-----
2024-02-26 11:12 am NE 5.1 8.9----29.50- 33.8-----
2024-02-26 11:06 amENE 5.1 8.9----29.50- 34.3-----
2024-02-26 11:00 amENE 5.1 12.0----29.50-0.15 34.2 38.3----
2024-02-26 10:54 amENE 5.1 8.0----29.51- 34.0 38.1----
2024-02-26 10:48 amENE 5.1 9.9----29.52- 33.8 38.1----
2024-02-26 10:42 amENE 6.0 8.9----29.52- 33.6 38.1----
2024-02-26 10:36 amENE 5.1 8.9----29.53- 33.6 38.1----
2024-02-26 10:30 am NE 5.1 8.9----29.53- 33.6 38.1----
2024-02-26 10:24 am NE 5.1 8.0----29.54- 33.4 38.1----
2024-02-26 10:18 am NE 5.1 8.0----29.54- 33.4 38.1----
2024-02-26 10:12 am NE 4.1 6.0----29.55- 33.3 38.1----
2024-02-26 10:06 am NE 4.1 8.0----29.56- 33.3 38.1----
2024-02-26 10:00 am NE 5.1 7.0----29.56-0.14 33.1 38.1----
2024-02-26 09:54 am NE 4.1 8.0----29.57- 33.1 38.1----
2024-02-26 09:48 am NE 2.9 7.0----29.58- 33.1 38.1----
2024-02-26 09:42 am NE 5.1 7.0----29.58- 33.1 38.1----
2024-02-26 09:36 amENE 2.9 6.0----29.59- 32.7 38.1----
2024-02-26 09:30 am NE 4.1 6.0----29.59- 32.5 38.1----
2024-02-26 09:24 am NE 5.1 6.0----29.59- 32.2 37.9----
2024-02-26 09:18 am- 0.0 5.1----29.59- 32.0 37.9----
2024-02-26 09:12 amNNE 1.9 4.1----29.60- 32.0 37.9----
2024-02-26 09:06 am E 1.9 4.1----29.60- 31.8 37.9----
2024-02-26 09:00 am- 0.0 4.1----29.61-0.15 31.8 37.9----
2024-02-26 08:54 am N 1.9 5.1----29.61- 31.8 37.9----
2024-02-26 08:48 amWNW 1.0 1.9----29.62-- 37.9----
2024-02-26 08:42 am- 0.0 2.9----29.62- 31.6 37.9----
2024-02-26 08:36 amNNW 1.9 2.9----29.62- 31.6 37.9----
2024-02-26 08:30 am NW 1.9 2.9----29.63- 31.6 37.9----
2024-02-26 08:24 amWNW 1.9 4.1----29.64- 31.5 37.9----
2024-02-26 08:18 am NW 1.0 4.1----29.64-- 37.9----
2024-02-26 08:12 am- 0.0 2.9----29.64- 31.3 37.9----
2024-02-26 08:06 amENE 1.9 2.9----29.65- 31.1 37.9----
2024-02-26 08:00 am- 0.0 1.9----29.65-0.16 30.9 37.9----
2024-02-26 07:54 am NE 1.0 2.9----29.65- 30.4 37.9----
2024-02-26 07:48 am- 0.0 1.9----29.66- 28.9 37.9----
2024-02-26 07:42 am- 0.0 1.9----29.67- 28.9 37.9----
2024-02-26 07:36 am- 0.0 2.9----29.67- 29.1 37.9----
2024-02-26 07:30 am SW 4.1 5.1----29.68- 28.2 37.9----
2024-02-26 07:24 am SW 1.0 1.9----29.68- 30.6 37.9----
2024-02-26 07:18 am- 0.0 1.0----29.69-- 37.9----
2024-02-26 07:12 am- 0.0 1.9----29.69- 31.1 37.9----
2024-02-26 07:06 am SW 1.0 2.9----29.70- 31.1 37.9----
2024-02-26 07:00 am- 0.0 5.1----29.70-0.17 31.5 37.9----
2024-02-26 06:54 amSSW 2.9 11.1----29.71- 31.5 37.9----
2024-02-26 06:48 amENE 8.0 12.0----29.71- 31.6 37.9----
2024-02-26 06:42 amENE 8.0 13.0----29.72- 31.3 37.9----
2024-02-26 06:36 amENE 8.0 11.1----29.72- 31.1 37.9----
2024-02-26 06:30 amENE 4.1 7.0----29.73- 30.6 37.9----
2024-02-26 06:24 amENE 5.1 12.0----29.73- 30.4 37.9----
2024-02-26 06:18 amNNW 2.9 4.1----29.73-- 37.9----
2024-02-26 06:12 am- 0.0 2.9----29.74- 28.4 37.9----
2024-02-26 06:06 am- 0.0 4.1----29.75- 27.7 37.9----
2024-02-26 06:00 am SW 1.9 4.1----29.76-0.14 27.3 37.9----
2024-02-26 05:54 am- 0.0 1.9----29.76- 27.0 37.9----
2024-02-26 05:48 am S 1.9 2.9----29.78- 26.8 37.9----
2024-02-26 05:42 amSSW 1.9 2.9----29.78- 26.6 37.9----
2024-02-26 05:36 am W 2.9 4.1----29.78- 26.6 37.9----
2024-02-26 05:30 amWSW 1.0 4.1----29.79- 26.4 37.9----
2024-02-26 05:24 amSSW 2.9 4.1----29.80- 26.1 37.9----
2024-02-26 05:18 am SW 2.9 4.1----29.80- 26.2 37.9----
2024-02-26 05:12 amSSW 2.9 4.1----29.81- 26.2 37.9----
2024-02-26 05:06 amSSW 2.9 4.1----29.81- 26.1 37.9----
2024-02-26 05:00 amSSW 2.9 4.1----29.82-0.12 26.4 37.9----
2024-02-26 04:54 am SW 2.9 4.1----29.82- 26.2 37.9----
2024-02-26 04:48 amSSW 5.1 5.1----29.83- 26.2 37.9----
2024-02-26 04:42 am SW 5.1 6.0----29.84- 26.2 37.9----
2024-02-26 04:36 am SW 5.1 5.1----29.84- 26.2 37.9----
2024-02-26 04:30 am SW 4.1 5.1----29.84- 26.2 37.9----
2024-02-26 04:24 amSSW 4.1 4.1----29.85- 26.4 37.9----
2024-02-26 04:18 amSSW 2.9 2.9----29.85-- 37.9----
2024-02-26 04:12 amSSW 1.9 2.9----29.85- 26.2 37.9----
2024-02-26 04:06 amSSW 2.9 4.1----29.86- 26.6 37.9----
2024-02-26 04:00 amSSW 2.9 4.1----29.87-0.13 26.6 37.9----
2024-02-26 03:54 am SW 4.1 6.0----29.88- 26.4 37.9----
2024-02-26 03:48 am SW 5.1 5.1----29.89-------
2024-02-26 03:42 am SW 5.1 6.0----29.89- 26.8 37.9----
2024-02-26 03:36 am SW 5.1 6.0----29.89- 27.0 37.9----
2024-02-26 03:30 amSSW 4.1 5.1----29.89- 28.2 37.9----
2024-02-26 03:24 am SW 4.1 5.1----29.89- 28.4 37.9----
2024-02-26 03:18 am SW 5.1 6.0----29.89- 28.8 37.9----
2024-02-26 03:12 am SW 5.1 6.0----29.90- 28.9 37.9----
2024-02-26 03:06 amSSW 1.9 2.9----29.90- 29.7 37.9----
2024-02-26 03:00 am- 0.0 1.0----29.90-0.13 29.7 37.9----
2024-02-26 02:54 am- 0.0 1.9----29.91- 29.8 37.9----
2024-02-26 02:48 am- 0.0 2.9----29.91- 29.7 37.9----
2024-02-26 02:42 am- 0.0 4.1----29.91- 30.0 37.9----
2024-02-26 02:36 amNNW 2.9 4.1----29.92- 29.7 37.9----
2024-02-26 02:30 am N 1.0 2.9----29.92- 29.5 37.9----
2024-02-26 02:24 am NE 1.0 2.9----29.92- 29.5 38.1----
2024-02-26 02:18 am- 0.0 1.0----29.93- 29.1 38.1----
2024-02-26 02:12 am- 0.0 1.9----29.93- 28.9 38.1----
2024-02-26 02:06 am- 0.0 1.9----29.94- 28.9 38.1----
2024-02-26 02:00 amNNW 1.0 1.9----29.94-0.11 28.8 38.1----
2024-02-26 01:54 am- 0.0 1.0----29.95- 28.8 38.1----
2024-02-26 01:48 am- 0.0 2.9----29.96- 28.9 38.1----
2024-02-26 01:42 am SW 1.0 1.9----29.96- 29.1 38.1----
2024-02-26 01:36 am- 0.0 1.9----29.97- 28.8 38.1----
2024-02-26 01:30 amWSW 1.9 2.9----29.97- 29.1 38.1----
2024-02-26 01:24 am S 1.9 4.1----29.97- 29.1 38.1----
2024-02-26 01:18 amWSW 1.0 1.9----29.98- 29.7 38.1----
2024-02-26 01:12 amWSW 1.0 2.9----29.98- 29.7 38.1----
2024-02-26 01:06 am SW 2.9 4.1----29.99- 29.5 38.1----
2024-02-26 01:00 am SW 2.9 5.1----30.00-0.09 29.3 38.1----
2024-02-26 12:54 am SW 4.1 4.1----30.00- 29.1 38.1----
2024-02-26 12:48 am SW 4.1 5.1----30.00- 29.5 38.1----
2024-02-26 12:42 amSSW 1.9 4.1----30.00- 29.1 38.1----
2024-02-26 12:36 am S 1.9 2.9----30.01- 29.1 38.1----
2024-02-26 12:30 am S 1.9 1.9----30.01- 29.3 38.1----
2024-02-26 12:24 amSSE 1.0 2.9----30.02- 29.1 38.1----
2024-02-26 12:18 am SW 2.9 2.9----30.02-- 38.1----
2024-02-26 12:12 amSSW 1.9 5.1----30.02- 29.1 38.1----
2024-02-26 12:06 amSSW 5.1 6.0----30.03- 29.3 38.1----
2024-02-26 12:00 amSSW 5.1 6.0----30.03-0.07 29.1 38.1----
2024-02-25 11:54 pm SW 5.1 6.0----30.03- 28.9 38.1----
2024-02-25 11:48 pm SW 6.0 7.0----30.03-- 38.1----
2024-02-25 11:42 pm SW 5.1 6.0----30.04- 28.8 38.1----
2024-02-25 11:36 pmSSW 5.1 6.0----30.04- 28.6 38.1----
2024-02-25 11:30 pm SW 4.1 5.1----30.04- 28.6 38.1----
2024-02-25 11:24 pm SW 4.1 5.1----30.05- 28.6 38.1----
2024-02-25 11:18 pmSSW 5.1 5.1----30.05- 28.6 38.1----
2024-02-25 11:12 pm SW 5.1 5.1----30.05- 28.6 38.1----
2024-02-25 11:06 pm SW 5.1 5.1----30.06- 28.6 38.1----
2024-02-25 11:00 pmSSW 4.1 4.1----30.05-0.08 28.6 38.1----
2024-02-25 10:54 pm SW 2.9 4.1----30.05- 28.6 38.1----
2024-02-25 10:48 pmSSW 2.9 4.1----30.06- 28.8 38.1----
2024-02-25 10:42 pm SW 2.9 5.1----30.06- 28.8 38.1----
2024-02-25 10:36 pm SW 1.9 4.1----30.06- 28.8 38.1----
2024-02-25 10:30 pm W 1.0 4.1----30.06- 28.4 38.1----
2024-02-25 10:24 pm SW 2.9 4.1----30.07- 28.6 37.9----
2024-02-25 10:18 pmSSW 4.1 4.1----30.07- 28.4 37.9----
2024-02-25 10:12 pmSSW 2.9 4.1----30.07- 28.2 37.9----
2024-02-25 10:06 pmSSW 2.9 2.9----30.07- 28.4 37.9----
2024-02-25 10:00 pm SW 1.9 4.1----30.08-0.06 28.6 37.8----
2024-02-25 09:54 pmWSW 1.9 4.1----30.08- 28.8 37.8----
2024-02-25 09:48 pmSSW 2.9 4.1----30.09-- 37.8----
2024-02-25 09:42 pm S 1.9 2.9----30.09- 28.6 37.8----
2024-02-25 09:36 pm SW 1.9 2.9----30.09- 28.8 37.8----
2024-02-25 09:30 pm SW 2.9 4.1----30.09- 28.8 37.8----
2024-02-25 09:24 pm SW 2.9 2.9----30.10- 28.6 37.8----
2024-02-25 09:18 pmSSW 2.9 4.1----30.10-- 37.8----
2024-02-25 09:12 pmSSE 1.9 4.1----30.10- 28.4 37.8----
2024-02-25 09:06 pm S 2.9 4.1----30.11- 28.6 37.8----
2024-02-25 09:00 pm SW 1.9 2.9----30.11-0.06 28.8 37.8----
2024-02-25 08:54 pm S 1.9 5.1----30.11- 28.6 37.8----
2024-02-25 08:48 pmSSW 4.1 5.1----30.11-------
2024-02-25 08:42 pm SW 2.9 4.1----30.12- 28.8 37.8----
2024-02-25 08:36 pm- 0.0 2.9----30.12- 28.9 37.8----
2024-02-25 08:30 pm SW 2.9 5.1----30.12- 29.1 37.8----
2024-02-25 08:24 pm SW 4.1 6.0----30.12- 29.3 37.8----
2024-02-25 08:18 pm SW 4.1 5.1----30.12- 29.3 37.8----
2024-02-25 08:12 pmWSW 2.9 4.1----30.12- 29.3 37.8----
2024-02-25 08:06 pm SW 4.1 5.1----30.13- 29.1 37.8----
2024-02-25 08:00 pm SW 2.9 5.1----30.13-0.03 29.1 37.6----
2024-02-25 07:54 pmSSW 1.9 2.9----30.13- 28.9 37.8----
2024-02-25 07:48 pm SW 1.9 4.1----30.13- 29.1 37.8----
2024-02-25 07:42 pm- 0.0 1.0----30.13- 29.1 37.8----
2024-02-25 07:36 pm- 0.0 1.9----30.14- 28.9 37.8----
2024-02-25 07:30 pm- 0.0 1.9----30.14- 29.1 37.8----
2024-02-25 07:24 pm S 1.0 1.9----30.14- 29.3 37.8----
2024-02-25 07:18 pm S 1.0 2.9----30.14- 29.3 37.8----
2024-02-25 07:12 pmWSW 1.9 2.9----30.14- 29.7 37.8----
2024-02-25 07:06 pm- 0.0 1.9----30.14- 29.5 37.8----
2024-02-25 07:00 pm SW 1.0 2.9----30.14-0.04 29.8 37.8----
2024-02-25 06:54 pmSSW 1.0 1.9----30.15- 29.8 37.8----
2024-02-25 06:48 pm S 1.0 1.9----30.15-- 37.8----
2024-02-25 06:42 pm- 0.0 1.9----30.15- 29.8 37.8----
2024-02-25 06:36 pmSSW 1.9 2.9----30.15- 30.2 37.8----
2024-02-25 06:30 pmSSW 1.0 1.9----30.15- 30.2 37.8----
2024-02-25 06:24 pm- 0.0 1.9----30.15- 30.0 37.8----
2024-02-25 06:18 pm S 1.0 1.9----30.16- 30.7 37.8----
2024-02-25 06:12 pm S 1.0 2.9----30.16- 30.9 37.8----
2024-02-25 06:06 pmSSW 1.0 1.9----30.16- 31.1 37.8----
2024-02-25 06:00 pm- 0.0 1.0----30.16- 31.3 37.8----
2024-02-25 05:54 pm E 1.9 1.9----30.16- 31.5 37.8----
2024-02-25 05:48 pm- 0.0 1.0----30.16- 31.6-----
2024-02-25 05:42 pm- 0.0 1.0----30.16- 32.0-----
2024-02-25 05:36 pm- 0.0 0.0----30.16- 32.5-----
2024-02-25 05:30 pm- 0.0 0.0----30.16- 32.7 37.6----
2024-02-25 05:24 pm- 0.0 1.0----30.16- 32.7 37.6----
2024-02-25 05:18 pm W 1.0 1.9----30.16-- 37.6----
2024-02-25 05:12 pmWNW 2.9 4.1----30.16- 32.4 37.6----
2024-02-25 05:06 pmWSW 1.9 5.1----30.16- 32.4 37.6----
2024-02-25 05:00 pm W 4.1 6.0----30.16-0.03 32.5 37.6----
2024-02-25 04:54 pm W 6.0 7.0----30.16- 32.7 37.6----
2024-02-25 04:48 pmWSW 1.9 4.1----30.17-- 37.6----
2024-02-25 04:42 pmWNW 4.1 5.1----30.17- 33.6 37.6----
2024-02-25 04:36 pm NW 6.0 8.9----30.16- 33.6 37.6----
2024-02-25 04:30 pm NW 6.0 8.0----30.16- 33.3 37.6----
2024-02-25 04:24 pmNNW 5.1 8.9----30.17- 32.9 37.6----
2024-02-25 04:18 pmWNW 8.0 9.9----30.17- 33.3 37.6----
2024-02-25 04:12 pm N 6.0 9.9----30.18- 33.8 37.8----
2024-02-25 04:06 pmNNW 2.9 6.0----30.18- 34.0 37.8----
2024-02-25 04:00 pmWNW 5.1 8.9----30.18-0.01- 37.8----
2024-02-25 03:54 pmWNW 7.0 9.9----30.18-- 37.8----
2024-02-25 03:48 pmNNW 8.0 12.0----30.19-- 37.8----
2024-02-25 03:42 pmNNW 5.1 11.1----30.18- 34.3 37.8----
2024-02-25 03:36 pm NW 6.0 9.9----30.19- 33.3 37.8----
2024-02-25 03:30 pmWNW 7.0 13.0----30.19- 33.1 37.8----
2024-02-25 03:24 pmWNW 5.1 9.9----30.19- 34.2 37.8----
2024-02-25 03:18 pmNNW 6.0 7.0----30.19-- 37.8----
2024-02-25 03:12 pmWNW 1.9 7.0----30.19-- 37.8----
2024-02-25 03:06 pmNNE 2.9 7.0----30.19-- 37.8----
2024-02-25 03:00 pm W 2.9 8.0------- 37.8----
2024-02-25 02:54 pmNNW 1.9 11.1------- 37.8----
2024-02-25 02:48 pmWNW 7.0 11.1----30.19- 34.2 37.8----
2024-02-25 02:42 pm W 6.0 12.0----30.19- 34.0 37.8----
2024-02-25 02:36 pm NW 5.1 11.1----30.19- 35.1 37.8----
2024-02-25 02:30 pm NW 5.1 13.0----30.19- 35.1 37.8----
2024-02-25 02:24 pmWNW 12.0 17.1----30.19- 33.6 37.8----
2024-02-25 02:18 pmWNW 11.1 17.1----30.19- 33.6 37.9----
2024-02-25 02:12 pmWNW 8.9 15.9----30.19- 33.3 37.9----
2024-02-25 02:00 pmWNW 8.0 17.1----30.19- 33.6 37.9----
2024-02-25 01:54 pmWNW 9.9 17.1----30.19- 33.4 37.9----
2024-02-25 01:48 pmWNW 8.9 12.0----30.19- 33.1 38.1----
2024-02-25 01:42 pmNNW 8.9 13.0----30.19- 33.6 38.1----
2024-02-25 01:36 pmNNW 7.0 14.0----30.19- 33.1 38.1----
2024-02-25 01:30 pm NW 4.1 12.0----30.20- 34.0 38.1----
2024-02-25 01:24 pm NW 8.9 14.0----30.20- 33.6 38.1----
2024-02-25 01:18 pmNNE 4.1 9.9----30.19- 33.6 38.1----
2024-02-25 01:12 pm W 9.9 14.0----30.19- 32.9 37.9----
2024-02-25 01:06 pm NW 11.1 15.0----30.19- 33.4 37.9----
2024-02-25 01:00 pm W 9.9 25.1----30.20+0.00 32.9 37.9----
2024-02-25 12:54 pm SW 6.0 15.0----30.19- 32.9 37.8----